CAPE
234 3 1 24 0 49 64 104 189 405 114 99 116 103 126 125 34 57 138 440 473 249 221 376 535 543 847 884 785 618 569 501 369
343 73 1 51 29 0 73 89 138 523 354 151 106 105 152 316 392 244 131 183 407 541 460 412 376 637 738 799 832 877 759 728 615
156 336 19 39 30 9 57 86 107 208 588 337 214 154 134 192 365 527 590 227 334 378 414 383 401 276 270 285 607 607 638 670 666
34 222 123 44 58 45 26 236 219 257 523 649 478 427 372 355 264 363 659 803 647 471 467 352 253 188 129 151 478 662 741 652 611
256 335 163 105 145 101 238 407 440 468 570 801 689 671 651 663 556 517 511 717 755 714 642 589 611 594 267 301 496 743 782 705 895
429 361 273 255 260 139 200 385 613 766 781 766 789 1078 1027 1194 976 1001 861 658 705 846 1071 1046 502 574 649 556 512 536 571 563 566
284 460 428 414 248 234 181 111 279 1016 1172 1093 978 1242 1222 1330 1385 1285 1377 1235 1197 1004 532 259 107 278 449 612 452 300 345 476 570
249 372 306 416 406 163 294 110 209 661 1466 1377 1344 1451 1364 1218 1338 1536 1464 1319 1028 774 215 36 74 5 83 27 297 709 813 494 634
175 118 442 505 686 687 550 464 230 436 1278 1505 1516 1634 1771 1479 1437 1027 1127 1076 849 775 273 176 149 13 0 123 13 85 165 183 885
216 622 905 892 602 353 1158 688 673 1107 1297 1286 1438 1362 913 404 151 0 0 0 0 0 8 167 139 10 168 56 0 1 9 43 189
627 918 89 0 0 2 0 369 962 976 978 769 302 5 0 0 0 0 0 0 0 0 0 0 0 0 0 0 98 103 14 0 15
336 421 0 18 0 0 0 10 969 397 210 72 0 2 0 0 0 0 0 0 0 0 0 0 0 0 0 0 0 0 0 0 0
122 10 0 0 1 0 12 791 441 127 7 0 1 1 1 0 0 0 0 0 0 0 0 0 0 0 0 1 0 0 0 0 0
138 279 298 449 537 686 613 110 15 0 0 1 0 0 0 0 0 0 0 0 0 0 0 0 0 0 0 0 0 0 0 0 0
163 248 702 1119 762 409 165 33 0 0 0 0 0 0 0 0 0 0 0 0 0 0 0 0 0 0 0 0 0 1 0 0 0
182 152 924 708 472 250 44 10 0 0 1 0 0 0 0 0 0 0 0 0 0 0 0 0 0 0 0 0 0 0 1 0 0
123 414 635 436 310 187 36 0 0 0 0 0 0 0 0 0 0 0 0 0 0 0 1 0 0 0 0 0 0 0 1 2 1
215 492 444 396 311 201 8 0 0 0 0 0 0 0 0 0 0 0 0 0 0 0 0 1 0 1 1 0 0 0 0 0 1
461 326 168 91 49 71 1 1 1 0 0 0 0 0 0 0 0 0 0 0 0 0 0 0 0 0 0 0 0 1 1 1 1
411 36 68 24 39 18 0 0 1 0 0 0 0 0 0 0 0 0 0 0 0 0 0 0 0 0 0 0 1 0 0 0 0
CIN
-319 -380 -48 -318 0 -339 -322 -297 -289 -262 -342 -311 -295 -247 -246 -248 -264 -245 -234 -159 -165 -235 -239 -190 -186 -158 -141 -124 -127 -135 -136 -143 -135
-285 -391 -120 -373 -395 0 -330 -304 -309 -291 -326 -327 -330 -274 -244 -219 -183 -206 -239 -217 -201 -182 -187 -181 -215 -171 -141 -136 -135 -129 -137 -122 -115
-361 -309 -509 -455 -453 -413 -359 -341 -322 -313 -292 -308 -351 -295 -265 -238 -191 -179 -171 -224 -190 -196 -191 -221 -182 -211 -208 -183 -157 -167 -155 -131 -123
-470 -415 -460 -536 -523 -469 -405 -359 -312 -305 -293 -256 -283 -284 -268 -251 -248 -203 -185 -157 -166 -184 -176 -195 -203 -213 -231 -256 -168 -154 -140 -143 -126
-612 -514 -561 -604 -547 -557 -452 -367 -335 -309 -272 -258 -268 -262 -248 -252 -254 -221 -201 -186 -176 -170 -158 -166 -150 -154 -204 -177 -144 -137 -134 -121 -83
-561 -607 -685 -710 -683 -604 -522 -446 -359 -301 -294 -302 -272 -230 -229 -196 -204 -198 -194 -211 -158 -163 -124 -107 -159 -135 -121 -129 -141 -144 -158 -158 -140
-678 -648 -688 -675 -676 -553 -627 -580 -439 -323 -280 -272 -268 -226 -212 -208 -191 -187 -166 -172 -160 -147 -178 -228 -254 -136 -106 -107 -152 -168 -149 -143 -135
-590 -563 -638 -610 -512 -481 -434 -496 -459 -339 -257 -252 -253 -202 -216 -241 -223 -177 -155 -140 -155 -137 -309 -345 -254 -194 -336 -365 -192 -111 -86 -93 -81
-550 -592 -613 -499 -382 -378 -338 -309 -380 -346 -273 -260 -227 -167 -171 -195 -159 -197 -154 -129 -145 -158 -268 -261 -219 -385 0 -244 -354 -298 -237 -199 -34
-617 -574 -466 -435 -472 -539 -307 -295 -382 -298 -336 -310 -225 -215 -267 -315 -296 0 0 0 0 0 -228 -120 -181 -65 -185 -215 0 -100 -161 -267 -114
-534 -440 -260 -415 0 -442 0 -521 -278 -337 -388 -390 -501 -277 0 0 0 0 0 0 0 0 0 0 0 0 0 0 -44 -131 -93 -111 -121
-541 -590 0 -941 0 0 0 -686 -386 -401 -540 -698 0 0 0 0 0 0 0 0 0 0 0 0 0 0 0 0 0 0 0 0 0
-671 -98 0 0 -42 0 -152 -267 -300 -521 -514 0 0 0 0 0 0 0 0 0 0 0 0 0 0 0 0 0 0 0 0 0 0
-679 -639 -567 -473 -422 -259 -215 -324 -377 0 0 0 0 0 0 0 0 0 0 0 0 0 0 0 0 0 0 0 0 0 0 0 0
-650 -607 -400 -280 -313 -372 -380 -465 0 0 0 0 0 0 0 0 0 0 0 0 0 0 0 0 0 0 0 0 0 0 0 0 0
-656 -702 -347 -377 -376 -433 -523 -605 0 0 0 0 0 0 0 0 0 0 0 0 0 0 0 0 0 0 0 0 0 0 0 0 0
-697 -595 -448 -468 -477 -457 -545 0 0 0 0 0 0 0 0 0 0 0 0 0 0 0 0 0 0 0 0 0 0 0 0 0 0
-677 -542 -493 -438 -404 -408 -464 0 0 0 0 0 0 0 0 0 0 0 0 0 0 0 0 0 0 0 0 0 0 0 0 0 0
-505 -524 -570 -574 -540 -473 0 0 0 0 0 0 0 0 0 0 0 0 0 0 0 0 0 0 0 0 0 0 0 0 0 0 0
-469 -623 -569 -613 -570 -557 0 0 0 0 0 0 0 0 0 0 0 0 0 0 0 0 0 0 0 0 0 0 0 0 0 0 0
Wind_Speed
17 15 15 18 18 18 17 18 16 16 16 14 14 14 13 10 8 6 5 5 4 5 4 5 5 6 6 6 6 6 5 3 4
16 14 16 17 15 17 18 17 19 18 15 15 14 15 12 10 9 7 7 7 5 4 5 5 6 6 6 6 6 6 6 4 6
13 15 16 15 16 16 15 16 17 15 15 18 14 14 12 10 10 7 6 6 7 6 6 6 5 6 5 5 5 6 6 5 5
15 15 16 16 16 17 16 15 16 16 14 15 13 13 12 11 8 7 6 7 6 7 6 6 6 6 6 7 7 6 7 7 6
7 13 16 14 14 13 15 16 15 16 15 15 13 11 10 10 8 7 7 8 7 7 7 5 6 5 6 7 7 7 8 9 8
6 5 9 10 10 13 14 15 14 14 13 14 11 10 10 8 9 7 10 10 9 6 5 5 4 5 7 7 7 8 8 8 8
6 6 8 7 7 9 7 8 9 11 11 11 10 10 10 9 9 9 10 8 6 7 5 3 3 6 5 6 6 7 8 8 10
8 10 6 6 5 4 1 4 4 5 7 9 10 10 10 11 9 8 5 5 4 7 7 6 12 13 11 6 4 4 7 10 11
11 6 7 8 7 6 3 7 9 12 8 10 9 8 9 6 4 6 4 3 4 5 7 12 14 15 14 9 8 11 14 15 13
8 7 7 8 9 8 3 9 11 12 10 8 8 7 3 8 6 9 8 6 7 7 5 3 10 12 11 12 8 14 19 25 16
7 8 7 6 5 8 13 7 1 7 10 10 10 10 7 7 9 10 7 6 5 5 4 4 4 6 6 7 8 13 15 16 12
8 6 7 5 2 3 6 6 8 8 11 13 12 9 8 7 8 9 7 6 5 4 2 1 3 5 8 8 11 12 12 10 8
7 10 4 6 6 6 3 8 5 11 12 13 11 9 8 8 8 8 8 6 5 3 2 4 5 6 7 12 13 13 13 10 7
8 10 8 7 7 9 8 9 9 11 11 11 11 10 10 9 8 9 6 5 4 4 6 6 5 8 9 12 13 14 17 15 9
14 11 10 11 10 7 6 10 12 11 12 10 10 10 10 9 8 6 5 8 5 6 6 6 9 7 8 8 10 16 16 16 16
13 12 9 8 11 9 5 6 10 14 10 11 11 10 10 9 8 6 7 7 5 5 5 6 6 7 7 9 9 9 17 19 19
9 9 10 8 11 10 7 6 8 14 12 11 10 12 10 8 7 6 5 4 4 6 4 5 5 7 7 8 9 9 8 8 7
9 9 8 10 10 10 9 8 10 10 12 11 10 11 9 7 5 7 4 2 3 4 2 1 4 5 8 8 10 10 15 12 7
7 9 8 7 7 9 10 10 11 10 10 11 12 11 7 5 5 4 3 4 3 3 5 8 6 8 5 9 12 18 17 12 3
8 7 8 9 10 8 10 12 12 10 10 11 10 12 9 6 4 4 4 3 3 4 6 9 9 10 14 16 15 16 17 16 20
Wind_Direction
193 192 190 191 188 189 190 190 187 186 188 196 196 201 204 208 207 205 203 212 206 203 206 222 229 218 219 221 222 222 213 208 225
199 188 186 194 186 188 190 188 190 192 189 197 195 200 198 202 205 199 202 209 219 223 214 229 231 223 226 235 237 226 206 214 228
204 198 185 186 188 189 188 190 193 190 191 196 194 195 200 204 207 196 190 191 210 221 229 211 223 227 234 261 250 249 218 218 228
193 195 187 188 191 190 189 185 185 193 191 197 198 196 197 200 198 199 186 196 207 217 227 231 226 228 221 236 240 225 215 224 227
196 193 188 182 182 177 183 186 184 187 191 192 198 199 194 198 190 191 194 203 201 201 215 220 233 244 240 248 241 231 222 227 230
200 181 152 151 157 179 181 184 184 186 185 197 189 182 189 191 198 187 209 217 216 188 195 231 271 246 240 235 238 247 231 221 226
163 185 171 154 146 177 167 179 180 181 187 187 184 185 192 192 195 197 212 209 193 143 139 66 340 303 284 258 244 238 245 234 230
179 195 138 102 80 53 84 166 158 202 176 181 175 186 191 201 197 202 207 219 204 179 157 196 254 266 259 244 253 261 258 250 242
191 147 126 105 103 113 142 194 202 187 180 182 175 189 204 194 148 134 130 138 182 202 195 213 233 247 258 279 265 261 269 270 259
175 147 133 139 151 140 103 189 178 187 168 132 130 121 110 106 129 97 83 71 68 55 43 307 252 253 269 261 260 262 261 268 261
162 155 144 157 194 179 162 120 198 120 127 116 111 101 101 86 89 86 82 67 52 53 19 357 322 309 308 287 274 262 258 263 255
182 160 180 161 195 18 357 19 85 119 105 104 109 114 107 88 88 90 80 70 49 31 32 333 302 299 292 277 271 265 273 291 289
140 157 187 173 138 104 345 35 123 122 117 120 114 107 101 91 82 87 87 77 56 29 13 335 326 307 287 286 284 275 271 261 263
150 165 169 165 160 161 163 138 159 113 114 106 112 106 92 87 86 83 80 84 64 40 17 355 334 319 307 296 284 288 280 260 252
159 153 155 149 144 139 142 147 131 116 104 110 103 103 100 97 88 85 82 77 59 47 30 8 355 323 312 298 292 290 287 269 255
163 152 144 130 135 128 122 124 128 116 124 122 117 116 108 102 98 90 79 75 61 43 18 11 350 330 312 310 304 294 286 272 262
148 135 135 132 133 137 137 128 123 129 133 132 129 121 111 99 92 97 88 72 61 44 19 1 348 333 317 311 309 304 293 284 281
145 134 130 146 154 154 143 129 122 127 132 133 116 106 107 108 104 101 103 75 63 40 5 345 325 323 312 309 327 318 302 274 263
136 136 136 137 144 137 139 138 135 135 138 134 131 119 124 143 138 147 127 76 27 328 330 337 348 332 317 315 316 329 348 353 203
128 127 142 151 158 141 139 147 145 146 143 139 138 133 146 144 147 134 124 100 75 42 324 326 310 332 345 346 323 358 4 16 45